Location: Ku?niki
(51.4449°N, 17.8974°E)
Time: 14:13:30
(UTC+00:00)

POLYITAN 1 - Pass Details

Date: 04 July 2022
Orbit: 587 x 604 km, 98.0° (Epoch: 07 August)

Event Time Altitude Azimuth Distance (km) Brightness Sun altitude
Rises 01:45:27 0° 6° (N) 2,862 ? -6.6°
Reaches altitude 10° 01:47:51 10° 355° (N) 1,957 ? -6.3°
Maximum altitude 01:51:28 28° 296° (WNW) 1,140 ? -6.0°
Drops below altitude 10° 01:55:06 10° 237° (WSW) 1,951 ? -5.6°
Enters shadow 01:55:55 - 232° (SW) 2,246 ? -5.5°
